Location: Boss Branch
(32.3799°N, 97.2508°W)
Time: 22:16:55
(UTC+00:00)

JUGNU - Pass Details

Date: 08 December 2024
Orbit: 834 x 861 km, 20.0° (Epoch: 19 January)

Event Time Altitude Azimuth Distance (km) Brightness Sun altitude
Exits shadow 10:18:04 15° 155° (SSE) 2,108 ? -37.3°
Drops below altitude 10° 10:20:21 10° 132° (SE) 2,426 ? -36.8°
Sets 10:23:59 0° 110° (ESE) 3,362 ? -36.0°
